Weather History for KMDH - September, 2013

Change the Weather History Date:

Monday, September 2, 2013

  Actual Average Record
Temperature  
Mean Temperature 78 °F -  
Max Temperature 87 °F 85 °F 103 °F (1913)
Min Temperature 66 °F 62 °F 40 °F (1949)
Cooling Degree Days 12    
Growing Degree Days 28 (Base 50)    
Moisture  
Dew Point 67 °F    
Average Humidity 84    
Maximum Humidity 100    
Minimum Humidity 41    
Precipitation  
Precipitation 0.00 in - - ()
Sea Level Pressure  
Sea Level Pressure 29.87 in    
Wind  
Wind Speed 3 mph (NW)    
Max Wind Speed 12 mph    
Max Gust Speed 18 mph    
Visibility 5 miles    
Events Fog    
Averages and records for this station are not official NWS values.
T = Trace of Precipitation, MM = Missing Value Source: NWS Daily Summary

Daily Weather History Graph

Daily Weather History Graph

Search for Another Location

Airport or City:

Trip Planner

Search our weather history database for the weather conditions in past years. The results will help you decide how hot, cold, wet, or windy it might be!

Date:

Astronomy

Sep. 02, 2013 Rise Set
Actual Time 6:28 AM CDT 7:24 PM CDT
Civil Twilight 6:01 AM CDT 7:51 PM CDT
Nautical Twilight 5:29 AM CDT 8:22 PM CDT
Astronomical Twilight 4:56 AM CDT 8:55 PM CDT
Moon 3:46 AM CDT (9/2) 5:36 PM CDT (9/2)
Length of Visible Light 13h 49m
Length of Day
12h 56m
Waning Crescent, 8% of the Moon is Illuminated
Sep 2
Waning Crescent
Sep 5
New
Sep 12
First Quarter
Sep 19
Full
Sep 26
Last Quarter

Hourly Weather History & Observations

Time (CDT) Temp. Heat Index Dew Point Humidity Pressure Visibility Wind Dir Wind Speed Gust Speed Precip Events Conditions
12:52 AM 72.0 °F - 71.1 °F 97% 29.85 in 7.0 mi SSW 4.6 mph - N/A   Clear
1:52 AM 72.0 °F - 71.1 °F 97% 29.84 in 5.0 mi SW 3.5 mph - N/A   Clear
2:04 AM 71.6 °F - 69.8 °F 94% 29.85 in 1.5 mi Calm Calm - N/A   Clear
2:14 AM 69.8 °F - 69.8 °F 100% 29.85 in 0.5 mi Calm Calm - N/A Fog Fog
2:24 AM 71.6 °F - 69.8 °F 94% 29.85 in 2.0 mi SSW 3.5 mph - N/A   Clear
2:39 AM 71.6 °F - 69.8 °F 94% 29.84 in 1.0 mi Calm Calm - N/A   Clear
2:52 AM 68.0 °F - 68.0 °F 100% 29.83 in 0.5 mi Calm Calm - N/A Fog Fog
3:08 AM 69.8 °F - 69.8 °F 100% 29.84 in 0.2 mi Calm Calm - N/A Fog Fog
3:20 AM 69.8 °F - 69.8 °F 100% 29.84 in 1.0 mi SSW 4.6 mph - N/A   Mist
3:23 AM 69.8 °F - 69.8 °F 100% 29.84 in 2.5 mi SW 3.5 mph - N/A   Partly Cloudy
3:30 AM 71.6 °F - 69.8 °F 94% 29.84 in 4.0 mi WSW 3.5 mph - N/A   Partly Cloudy
3:41 AM 71.6 °F - 69.8 °F 94% 29.84 in 2.0 mi Calm Calm - N/A   Clear
3:52 AM 69.1 °F - 69.1 °F 100% 29.83 in 0.8 mi Calm Calm - N/A   Clear
4:06 AM 68.0 °F - 68.0 °F 100% 29.84 in 0.2 mi Calm Calm - N/A Fog Fog
4:26 AM 69.8 °F - 69.8 °F 100% 29.84 in 0.2 mi Calm Calm - N/A Fog Fog
4:43 AM 69.8 °F - 69.8 °F 100% 29.85 in 1.0 mi Calm Calm - N/A   Mist
4:50 AM 69.8 °F - 69.8 °F 100% 29.85 in 0.5 mi Calm Calm - N/A Fog Fog
4:52 AM 69.1 °F - 68.0 °F 96% 29.84 in 0.5 mi Calm Calm - N/A Fog Fog
4:59 AM 71.6 °F - 69.8 °F 94% 29.85 in 1.2 mi NW 3.5 mph - N/A   Clear
5:10 AM 71.6 °F - 69.8 °F 94% 29.85 in 1.5 mi Calm Calm - N/A   Partly Cloudy
5:19 AM 69.8 °F - 69.8 °F 100% 29.85 in 1.0 mi WNW 3.5 mph - N/A   Mist
5:22 AM 71.6 °F - 69.8 °F 94% 29.85 in 2.0 mi WNW 3.5 mph - N/A   Clear
5:29 AM 71.6 °F - 69.8 °F 94% 29.86 in 6.0 mi WNW 3.5 mph - N/A   Clear
5:52 AM 71.1 °F - 69.1 °F 93% 29.85 in 8.0 mi NNW 4.6 mph - N/A   Clear
6:52 AM 70.0 °F - 68.0 °F 93% 29.88 in 8.0 mi NW 3.5 mph - N/A   Clear
7:52 AM 72.0 °F - 68.0 °F 87% 29.90 in 10.0 mi NW 4.6 mph - N/A   Clear
8:52 AM 73.0 °F - 66.9 °F 81% 29.91 in 10.0 mi NNW 3.5 mph - N/A   Scattered Clouds
9:52 AM 75.0 °F - 66.0 °F 73% 29.92 in 10.0 mi NW 6.9 mph - N/A   Mostly Cloudy
10:52 AM 78.1 °F - 66.9 °F 68% 29.93 in 10.0 mi Variable 4.6 mph - N/A   Scattered Clouds
11:52 AM 81.0 °F 83.3 °F 66.9 °F 62% 29.93 in 10.0 mi NW 5.8 mph - N/A   Clear
12:52 PM 84.9 °F 86.6 °F 64.9 °F 51% 29.92 in 10.0 mi NW 11.5 mph - N/A   Clear
1:52 PM 84.9 °F 85.9 °F 63.0 °F 48% 29.91 in 10.0 mi NW 5.8 mph - N/A   Clear
2:52 PM 86.0 °F 86.8 °F 63.0 °F 46% 29.89 in 10.0 mi NW 9.2 mph 17.3 mph N/A   Clear
3:52 PM 87.1 °F 87.0 °F 61.0 °F 41% 29.88 in 10.0 mi NNW 6.9 mph - N/A   Clear
4:52 PM 84.9 °F 84.8 °F 60.1 °F 43% 29.88 in 10.0 mi NNW 9.2 mph 18.4 mph N/A   Clear
5:52 PM 82.9 °F 83.7 °F 62.1 °F 49% 29.88 in 10.0 mi NNW 6.9 mph - N/A   Clear
6:52 PM 79.0 °F - 63.0 °F 58% 29.89 in 10.0 mi NNW 5.8 mph - N/A   Clear
7:52 PM 73.0 °F - 63.0 °F 71% 29.91 in 10.0 mi NNW 3.5 mph - N/A   Clear
8:52 PM 70.0 °F - 63.0 °F 78% 29.92 in 10.0 mi NNW 3.5 mph - N/A   Clear
9:52 PM 69.1 °F - 62.1 °F 78% 29.93 in 10.0 mi NNW 4.6 mph - N/A   Clear
10:52 PM 68.0 °F - 62.1 °F 81% 29.94 in 10.0 mi NNW 4.6 mph - N/A   Clear
11:52 PM 66.9 °F - 62.1 °F 84% 29.94 in 10.0 mi Calm Calm - N/A   Clear